Regional Weather Roundup
Issued by NWS

Home | Current Version | Previous Version | Graphics & Text | Print | Product List | Glossary On
Versions: 1 2 3 4 5 6 7 8 9 10 11 12 13 14 15 16 17 18 19 20 21 22 23 24 25 26 27 28 29 30 31 32 33 34 35 36 37 38 39 40 41 42 43 44 45 46 47 48 49 50
000
ASUS43 KIND 220300
RWRIN

WEATHER ROUNDUP FOR INDIANA
NATIONAL WEATHER SERVICE INDIANAPOLIS IN
1100 PM EDT MON AUG 21 2017

NOTE: "FAIR" INDICATES FEW OR NO CLOUDS BELOW 12,000 FEET WITH NO
SIGNIFICANT WEATHER AND/OR OBSTRUCTIONS TO VISIBILITY.

* - STATION DOES NOT REPORT WEATHER SUCH AS PRECIPITATION OR FOG.

+ - STATION NOT QUALITY CONTROLLED BY THE NATIONAL WEATHER SERVICE.
    USE DATA WITH CAUTION...ESPECIALLY DEWPOINT AND RELATIVE
    HUMIDITY OBSERVATIONS.

INZ001>003-010>013-019-020-220400-
NORTHWEST INDIANA

CITY           SKY/WX    TMP DP  RH WIND       PRES   REMARKS
GARY /AIRPORT/ PTCLDY    79  72  78 S5        29.97S
MICHIGAN CITY+ CLOUDY    75  72  88 S7        29.97F
MONTICELLO +   CLEAR     75  73  93 S6        30.01S

$$

LMZ046-743>745-220400-
SOUTHERN LAKE MICHIGAN

STATION/POSITION TIME  TEMP    WIND        PRES    WAVE
                       AIR SEA DIR/SP/G            HT
                 (UTC) (F)     (DEG/KT/KT) (MB)    (FT)
BURNS HARBOR     0240   78     190/ 10/ 14 1014.9F
MICHIGAN CITY    0230   78     180/ 10/ 12   N/A
5NW MICH CITY    0250   77 75  200/ 10/ 12   N/A     1

$$

INZ004-005-014>016-021>024-220400-
NORTH CENTRAL INDIANA

CITY           SKY/WX    TMP DP  RH WIND       PRES   REMARKS
GOSHEN         PTCLDY    76  70  82 S9        29.99F
PERU/GRISSOM   CLEAR     72  70  93 SW6       30.02F
SOUTH BEND     MOCLDY    76  73  91 SW7       29.99F

$$

INZ006>009-017-018-025>027-220400-
NORTHEAST INDIANA

CITY           SKY/WX    TMP DP  RH WIND       PRES   REMARKS
FORT WAYNE     MOCLDY    73  69  87 SW8       30.03F

$$

INZ028-029-035-036-043>045-051>053-220400-
WEST CENTRAL INDIANA

CITY           SKY/WX    TMP DP  RH WIND       PRES   REMARKS
LAFAYETTE      CLEAR     73  70  90 SW5       30.01F
TERRE HAUTE    PTCLDY    71  68  90 S3        30.04F

$$

INZ030>032-037>040-046>048-054>057-064-065-220400-
CENTRAL INDIANA

CITY           SKY/WX    TMP DP  RH WIND       PRES   REMARKS
GREENWOOD *+   PTCLDY    74  70  87 S3        30.07S
INDIANAPOLIS   MOCLDY    74  71  91 S6        30.04F
-EAGLE CREEK   CLOUDY    75  71  87 S3        30.04F
KOKOMO +       CLEAR     73  69  87 S7        30.04F
MT COMFORT *+  PTCLDY    73  70  88 S5        30.07S
SHELBYVILLE    PTCLDY    74  68  81 S5        30.06F

$$

INZ033-034-041-042-049-050-058-059-220400-
EAST CENTRAL INDIANA

CITY           SKY/WX    TMP DP  RH WIND       PRES   REMARKS
MUNCIE         PTCLDY    77  69  76 S8        30.05F
RICHMOND +     PTCLDY    70  70 100 S6        30.10F FOG

$$

INZ060-061-067>069-081>083-085>088-220400-
SOUTHWEST INDIANA

CITY           SKY/WX    TMP DP  RH WIND       PRES   REMARKS
EVANSVILLE     PTCLDY    75  70  84 S7        30.08F
HUNTINGBURG +  LGT RAIN  74  72  93 S8        30.07F

$$

INZ062-063-066-070>080-084-089>092-220400-
SOUTH CENTRAL AND SOUTHEAST INDIANA

CITY           SKY/WX    TMP DP  RH WIND       PRES   REMARKS
BLOOMINGTON    PTCLDY    72  69  90 S7        30.07F
MADISON *+     CLOUDY    75  72  88 CALM      30.11S
SEYMOUR +      CLOUDY    75  73  94 CALM      30.07S

$$





USA.gov is the U.S. government's official web portal to all federal, state and local government web resources and services.